EW9523 Weather Reports


Display with metric or nautical units.
time (UTC)temp
F
wind
direction
speed
MPH
gust
MPH
rain 1hr
in
rain 24hr
in
rain mn
in
humidity
%
barometer
mb
20260506031215 61 111 1.0 3.0 0.00 0.07 0.00 78 1014.2
20260506030638 62 171 1.0 3.0 0.00 0.07 0.00 78 1014.1
20260506025158 62 213 1.0 4.0 0.00 0.07 0.00 77 1014.0
20260506024154 62 173 2.0 5.0 0.00 0.07 0.00 76 1014.1
20260506023154 62 226 1.0 5.0 0.00 0.07 0.00 75 1014.0
20260506022629 63 209 0.0 2.0 0.00 0.07 0.00 76 1013.9
20260506021144 63 188 3.0 10.0 0.00 0.07 0.00 75 1013.8
20260506020142 63 164 3.0 9.0 0.00 0.07 0.00 74 1013.6
20260506015617 64 192 3.0 7.0 0.00 0.07 0.00 74 1013.5
20260506014138 64 210 2.0 7.0 0.00 0.07 0.00 73 1013.5
20260506013137 65 229 2.0 6.0 0.00 0.07 0.00 72 1013.4
20260506012138 66 268 2.0 6.0 0.00 0.07 0.00 73 1013.4
20260506011134 66 304 3.0 9.0 0.00 0.07 0.00 72 1013.4
20260506010134 66 223 3.0 9.0 0.00 0.07 0.00 70 1013.3
20260506005134 67 259 3.0 7.0 0.00 0.07 0.00 71 1013.3
20260506004134 67 217 3.0 10.0 0.00 0.07 0.00 70 1013.1
20260506003134 67 238 2.0 7.0 0.00 0.07 0.00 73 1013.2
20260506002134 67 241 3.0 7.0 0.00 0.07 0.00 72 1013.2
20260506001134 67 277 2.0 7.0 0.00 0.07 0.00 71 1013.1
20260506000610 67 200 2.0 7.0 0.00 0.07 0.00 71 1013.0
20260505235131 67 261 3.0 7.0 0.00 0.07 0.00 70 1013.0
20260505234121 68 173 4.0 11.0 0.00 0.07 0.00 68 1013.0
20260505233114 68 252 3.0 9.0 0.00 0.07 0.00 70 1013.0
20260505232551 68 101 2.0 10.0 0.00 0.07 0.00 68 1013.1
20260505231115 69 240 3.0 11.0 0.00 0.07 0.00 68 1013.1
20260505230114 69 103 3.0 9.0 0.00 0.07 0.00 67 1013.1
20260505225114 69 142 4.0 10.0 0.00 0.07 0.00 69 1013.1
20260505224114 68 222 4.0 9.0 0.00 0.07 0.00 71 1013.3
20260505223114 68 140 3.0 11.0 0.00 0.07 0.00 69 1013.4
20260505222113 68 118 3.0 9.0 0.00 0.07 0.00 71 1013.5
20260505221114 67 126 3.0 8.0 0.00 0.07 0.00 70 1013.6
20260505220105 67 190 3.0 10.0 0.00 0.08 0.00 69 1013.7
20260505215103 67 181 3.0 7.0 0.00 0.08 0.00 70 1013.7
20260505214103 66 96 4.0 10.0 0.00 0.08 0.00 72 1014.0
20260505213102 66 103 3.0 7.0 0.00 0.09 0.00 72 1014.0
20260505212542 66 101 1.0 6.0 0.00 0.10 0.00 74 1014.1
20260505211058 65 321 3.0 7.0 0.00 0.10 0.00 74 1013.9
20260505210048 66 138 2.0 7.0 0.00 0.10 0.00 71 1013.9
20260505205048 66 86 2.0 5.0 0.00 0.10 0.00 71 1014.0
20260505204528 65 178 2.0 6.0 0.00 0.10 0.00 75 1014.2
20260505203044 65 98 2.0 6.0 0.00 0.10 0.00 74 1014.2
20260505202045 65 69 2.0 6.0 0.00 0.10 0.00 72 1014.2
20260505201044 65 207 2.0 6.0 0.00 0.10 0.00 73 1014.3
20260505200525 64 121 2.0 5.0 0.00 0.10 0.00 71 1014.4
20260505195526 64 186 1.0 4.0 0.00 0.10 0.00 72 1014.4
20260505194040 63 125 2.0 5.0 0.00 0.10 0.00 75 1014.3
20260505193526 63 114 2.0 4.0 0.00 0.10 0.00 76 1014.4
20260505192033 63 163 2.0 5.0 0.00 0.10 0.00 75 1014.4
20260505191034 63 263 1.0 5.0 0.00 0.10 0.00 75 1014.4
20260505190035 62 254 1.0 4.0 0.00 0.10 0.00 76 1014.5
20260505185035 62 304 2.0 5.0 0.00 0.10 0.00 77 1014.4
20260505184021 61 264 2.0 5.0 0.00 0.10 0.00 76 1014.4
20260505183010 61 208 3.0 6.0 0.00 0.10 0.00 77 1014.4
20260505181957 61 268 3.0 7.0 0.00 0.10 0.00 76 1014.3
20260505180958 61 213 2.0 7.0 0.00 0.10 0.00 78 1014.1
20260505175955 60 311 3.0 5.0 0.00 0.10 0.00 77 1014.1
20260505174955 61 213 2.0 7.0 0.00 0.10 0.00 77 1014.0
20260505173954 61 265 1.0 3.0 0.00 0.10 0.00 79 1013.9
20260505172951 61 261 2.0 6.0 0.00 0.10 0.00 75 1013.8
20260505171952 60 325 3.0 7.0 0.00 0.10 0.00 76 1013.9
20260505170951 60 20 4.0 10.0 0.00 0.10 0.00 77 1013.8
20260505170904 60 277 3.0 7.0 0.00 0.10 0.00 80 1014.0
20260505165434 58 298 2.0 6.0 0.00 0.10 0.00 82 1014.0
20260505164448 58 302 2.0 9.0 0.00 0.10 0.00 82 1013.9
20260505162943 57 257 2.0 8.0 0.00 0.10 0.00 83 1013.9
20260505162850 57 252 1.0 6.0 0.00 0.10 0.00 87 1013.8
20260505160925 56 343 2.0 5.0 0.00 0.10 0.00 86 1013.9
20260505160410 56 265 0.0 3.0 0.00 0.10 0.00 90 1013.9
20260505152909 54 347 0.0 2.0 0.00 0.10 0.00 90 1013.8
20260505151910 54 329 2.0 5.0 0.00 0.10 0.00 91 1013.8
20260505150858 54 0 1.0 4.0 0.00 0.10 0.00 93 1013.5
20260505123732 51 35 2.0 3.0 0.00 0.10 0.00 93 1012.7
20260505123207 52 58 0.0 2.0 0.00 0.10 0.00 94 1012.7
20260505121726 52 58 0.0 0.0 0.00 0.10 0.00 94 1012.8
20260505120703 52 58 0.0 0.0 0.00 0.10 0.00 95 1012.8
20260505115701 52 58 0.0 0.0 0.00 0.10 0.00 94 1012.7
20260505114701 52 58 0.0 2.0 0.00 0.10 0.00 94 1012.8
20260505113648 52 58 0.0 2.0 0.00 0.10 0.00 94 1012.9
20260505112622 52 58 1.0 2.0 0.00 0.10 0.00 94 1013.0
20260505111620 52 116 0.0 2.0 0.00 0.10 0.00 94 1013.0
20260505110621 52 115 0.0 2.0 0.00 0.10 0.00 94 1012.9
20260505101608 52 44 2.0 3.0 0.00 0.10 0.00 93 1012.7
20260505100606 52 26 1.0 3.0 0.00 0.10 0.00 93 1012.7
20260505095600 52 46 1.0 2.0 0.00 0.10 0.00 93 1012.6
20260505094551 52 348 0.0 3.0 0.00 0.10 0.00 94 1012.5
20260505093551 52 32 0.0 2.0 0.00 0.10 0.00 94 1012.8
20260505093036 52 32 1.0 3.0 0.00 0.10 0.00 95 1012.8
20260505091541 53 48 0.0 1.0 0.00 0.10 0.00 95 1012.9
20260505090539 53 81 0.0 0.0 0.00 0.10 0.00 95 1013.2
20260505085517 53 81 0.0 0.0 0.00 0.10 0.00 95 1013.5
20260505084516 53 81 0.0 0.0 0.00 0.10 0.00 95 1013.3
20260505083516 53 81 0.0 1.0 0.00 0.10 0.00 94 1013.4
20260505082513 53 81 0.0 2.0 0.00 0.10 0.00 95 1013.4
20260505081513 53 81 0.0 0.0 0.00 0.10 0.00 95 1013.3
20260505080949 53 81 0.0 0.0 0.00 0.10 0.00 95 1013.5
20260505075956 53 81 0.0 0.0 0.00 0.10 0.00 94 1013.5
20260505074512 53 81 0.0 2.0 0.00 0.10 0.00 94 1013.7
20260505073504 53 90 0.0 1.0 0.00 0.10 0.00 94 1013.6
20260505072429 53 292 0.0 2.0 0.00 0.10 0.00 94 1013.3
20260505071429 53 35 2.0 3.0 0.00 0.10 0.00 94 1013.6
20260505070429 53 34 0.0 3.0 0.00 0.10 0.00 94 1013.4
20260505065903 54 355 0.0 0.0 0.00 0.10 0.10 95 1013.4
20260505064422 54 355 0.0 0.0 0.00 0.10 0.10 95 1013.8
20260505063423 54 355 0.0 0.0 0.00 0.10 0.10 94 1013.9
20260505062412 54 46 0.0 0.0 0.00 0.10 0.10 94 1014.0
20260505061412 54 355 0.0 2.0 0.01 0.10 0.10 94 1013.9
20260505060404 54 22 1.0 3.0 0.04 0.10 0.10 94 1013.9
20260505055401 54 9 0.0 3.0 0.06 0.10 0.10 94 1013.6
20260505054338 54 170 0.0 1.0 0.07 0.10 0.10 93 1013.7
20260505053331 55 198 0.0 2.0 0.07 0.10 0.10 94 1013.8
20260505052322 55 109 0.0 0.0 0.07 0.10 0.10 94 1013.8
20260505051312 55 109 0.0 1.0 0.06 0.09 0.09 94 1014.1
20260505050245 55 126 1.0 4.0 0.03 0.06 0.06 94 1014.0
20260505041223 55 109 0.0 0.0 0.00 0.03 0.03 94 1013.6
20260505040222 55 109 0.0 0.0 0.00 0.03 0.03 93 1013.6
20260505035210 55 109 0.0 0.0 0.00 0.03 0.03 93 1013.5
20260505034145 55 109 0.0 0.0 0.00 0.03 0.03 93 1013.3
20260505033127 55 109 2.0 4.0 0.00 0.03 0.03 93 1013.2
20260505032121 55 63 2.0 4.0 0.00 0.03 0.03 93 1013.1